Location: Milhas
(42.9879°N, 0.8082°E)
Time: 17:09:34
(UTC+00:00)

Daily predictions for brighter satellites

Satellite Brightness Start Highest point End
(mag) Time Altitude Azimuth Time Altitude Azimuth Time Altitude Azimuth
Cosmos 1461 3.3 20:07:59 10° NW 20:12:44 82° WSW 20:17:28 10° SSE
Cosmos 1455 3.3 20:09:32 10° NNE 20:12:55 29° ENE 20:16:17 10° SE
Cosmos 1703 4.4 20:16:17 10° SE 20:19:28 25° E 20:22:40 10° NE
COSMOS 2428 4.2 20:16:46 10° SE 20:20:07 16° E 20:23:29 10° ENE
Geosat 4.1 20:15:52 10° SSE 20:20:54 88° WSW 20:25:57 10° NNW
Cosmos 1812 Rocket 3.7 20:18:59 10° N 20:23:16 57° E 20:27:31 10° SSE
Delta 2 Rocket 4.1 20:22:51 10° SW 20:25:37 23° S 20:28:10 11° SE
CZ-2C R/B 4.2 20:22:33 10° N 20:27:19 72° WNW 20:32:04 10° SSW
Cosmos 1602 Rocket 3.6 20:23:43 10° S 20:28:06 83° E 20:32:34 10° N
Cosmos 2263 Rocket 3.4 20:27:36 10° NW 20:32:43 38° WSW 20:37:49 10° S
Atlas Centaur 2 3.5 20:28:48 10° SW 20:33:27 25° S 20:38:47 11° ESE
MetOp-B 4.3 20:28:15 10° SSE 20:33:30 60° ENE 20:38:46 10° N
Nadezhda 1 Rocket 4.1 20:27:35 10° N 20:33:59 68° E 20:40:20 10° SSE
Terra 3.7 20:32:24 10° E 20:35:16 16° ENE 20:38:08 10° NNE
Cosmos 2219 Rocket 3.2 20:31:34 10° SSE 20:35:59 25° ESE 20:40:26 10° NE
Cosmos 2360 Rocket 2.2 20:32:01 10° SSW 20:37:37 73° ESE 20:43:17 10° NNE
IGS 5A 4.0 20:35:34 12° SE 20:39:12 42° ENE 20:43:08 10° N
Meteor 2-1 Rocket 4.4 20:33:42 10° NNW 20:39:33 84° W 20:45:28 10° S
IRIS 4.2 20:37:58 10° WSW 20:41:12 46° S 20:43:18 13° E
Cosmos 2333 Rocket 2.9 20:40:42 10° SSE 20:45:40 32° ESE 20:50:42 10° NE
Resurs 01 Rocket 2.2 20:46:37 10° S 20:50:57 57° W 20:55:18 10° NNW
Cosmos 1818 3.6 20:47:25 10° SW 20:52:51 85° WNW 20:58:20 10° NNE
CZ-2C R/B 4.3 20:50:26 10° N 20:55:20 36° WNW 21:00:07 10° SW
Cosmos 773 Rocket 4.3 20:50:42 10° S 20:55:46 48° ESE 21:00:51 10° NNE
Cosmos-2242 3.2 20:51:31 10° N 20:55:49 56° E 20:59:05 17° SSE
SL-16 R/B 3.9 20:51:28 10° SW 20:56:42 37° WNW 21:01:58 10° N
ERS-1 Rocket 3.6 20:56:51 16° SE 21:00:30 43° ENE 21:05:16 10° N
GEOS 3 Rocket 3.7 20:59:57 10° NE 21:05:23 83° SE 21:10:46 10° SW
USA 215 3.3 21:02:23 10° NE 21:08:52 60° SE 21:15:18 10° SSW
Cosmos 2278 Rocket 3.9 21:04:35 10° N 21:08:58 22° NE 21:13:09 11° E
ATLAS 5 CENTAUR R/B 1.9 21:05:35 10° SW 21:09:38 65° NW 21:14:12 10° NNE
Meteor 1-11 4.4 21:05:32 13° S 21:10:30 57° E 21:16:04 10° NNE
USA 245 3.1 21:08:35 20° S 21:10:44 77° WSW 21:14:43 10° NNW
Cosmos 1758 Rocket 3.9 21:09:10 10° SSW 21:13:37 67° W 21:18:07 10° N
Cosmos 1844 Rocket 2.7 21:08:39 10° NNW 21:14:15 84° WSW 21:18:16 19° SSE
Cosmos 1400 Rocket 2.7 21:11:08 10° N 21:15:08 88° W 21:17:41 21° S
SPOT 5 3.2 21:13:56 21° SE 21:17:10 53° ENE 21:21:53 10° N
Meteor 2-10 Rocket 4.4 21:13:21 10° NNW 21:18:12 45° W 21:23:14 10° SSW
Lacrosse 5 rocket 4.4 21:16:51 10° NW 21:18:46 13° NNW 21:20:40 10° NNE
Spot 2 Rocket 3.8 21:16:44 15° S 21:20:59 66° WSW 21:26:06 10° NNW
OAO 3 Rocket 4.4 21:18:20 10° WSW 21:22:26 27° SSW 21:23:58 23° SSE
USA 81 4.1 21:19:52 19° SSE 21:23:32 60° E 21:28:44 10° NNE
Landsat 7 4.2 21:21:48 16° S 21:25:31 63° W 21:30:16 10° NNW
BREEZE M DEB (TANK) 1.9 21:24:45 10° WNW 21:27:12 59° NNE 21:27:39 44° E
Cosmos 2181 Rocket 4.0 21:23:49 10° N 21:30:10 71° E 21:34:15 23° SSE
Cosmos 2074 Rocket 4.5 21:29:15 23° SE 21:32:41 43° E 21:38:29 10° NNE
SPOT 1/Viking Rocket 3.8 21:31:53 19° S 21:35:36 64° W 21:40:45 10° NNW
Cosmos 1953 Rocket 3.7 21:33:11 15° SSW 21:36:45 69° W 21:41:04 10° N
USA 267 4.0 21:34:10 10° E 21:40:23 47° NNE 21:46:36 10° NW
Cosmos 2084 3.9 21:41:45 10° NNW 21:46:09 54° NE 21:48:05 30° ESE
OAO 2 Rocket 4.0 21:42:34 10° WSW 21:47:22 35° S 21:48:29 32° SSE
Cosmos 1842 Rocket 3.8 21:43:21 10° N 21:47:37 52° E 21:49:02 36° SE
MTI 4.1 21:50:25 10° NNE 21:53:10 44° E 21:53:10 44° E
Cosmos 923 Rocket 4.4 21:52:20 33° SSE 21:54:07 44° ESE 21:59:07 10° NNE
ATLAS CENTAUR R/B 1.1 21:54:00 10° NNW 21:57:40 70° NE 21:58:26 51° ESE
Cosmos 1825 4.3 21:58:09 14° E 21:58:09 14° E 21:59:53 10° NE
Cosmos 1980 4.1 21:56:55 32° SSE 21:58:50 44° ESE 22:04:10 10° NE
Cosmos 967 Rocket 4.5 21:55:33 16° SSW 22:00:51 66° ESE 22:07:16 10° NE
COSMOS 2428 2.9 21:58:02 10° SSW 22:03:41 73° WNW 22:09:23 10° NNE
Cosmos 1869 3.2 22:04:35 10° N 22:08:35 73° E 22:09:23 54° SE
NOSS 0 Rocket 3.9 22:07:31 26° S 22:11:05 68° ESE 22:17:13 10° NNE
Terra 2.1 22:10:34 34° S 22:12:30 63° W 22:17:14 10° NNW
NOSS 3-4 (A) 4.5 22:07:59 10° NNW 22:14:43 49° NE 22:19:46 21° ESE
NOSS 3-4 (C) 4.5 22:08:06 10° NNW 22:14:50 49° NE 22:19:55 20° ESE
Cosmos 2237 Rocket 2.3 22:14:58 37° S 22:17:03 58° ESE 22:22:39 10° NNE
Genesis I 4.0 22:18:35 35° E 22:18:35 35° E 22:21:25 10° NE
Cosmos 2344 3.7 22:16:02 29° S 22:19:30 48° ESE 22:26:52 10° NE
Cosmos 2219 Rocket 3.0 22:14:12 10° SW 22:19:36 49° WNW 22:25:02 10° NNE
BREEZE-M DEB 4.5 22:16:19 10° WNW 22:20:37 83° NNE 22:39:01 10° ESE
Elektron 1 3.9 22:21:21 72° ESE 22:21:21 72° ESE 22:25:45 10° NE
BREEZE-M R/B 3.9 22:12:11 10° WNW 22:21:53 62° SW 22:23:36 42° SSE
Atlas Centaur 2 3.7 22:16:42 10° WSW 22:21:21 25° SSW 22:21:21 25° SSW
DELTA 2 R/B (1) 3.7 22:22:29 10° WSW 22:27:51 50° SSE 22:30:03 32° ESE
Cosmos 1315 Rocket 4.1 22:24:58 10° NNW 22:28:41 34° W 22:29:55 28° SW
Cosmos 2333 Rocket 3.5 22:24:31 10° SW 22:29:49 39° WNW 22:35:11 10° NNE
Cosmos 2184 Rocket 4.1 22:27:10 27° SSW 22:30:45 72° W 22:37:03 10° N
Thor Agena Rocket 3.6 22:27:14 10° NNE 22:32:16 57° ESE 22:33:18 48° SE
Meteor 2-2 Rocket 4.4 22:27:56 10° NNW 22:33:44 72° W 22:35:55 39° S
Cosmos 2221 3.1 22:34:06 10° NNW 22:38:21 50° W 22:39:20 41° SW
BREEZE-M DEB (TANK) 3.3 22:36:35 10° WNW 22:40:21 31° N 22:41:22 23° NE
Cosmos 1892 2.9 22:41:59 55° WSW 22:42:23 59° W 22:46:09 10° N
Iridium 2 3.8 22:38:44 10° N 22:42:26 62° ENE 22:42:26 62° ENE
Cosmos 1371 Rocket 4.4 22:37:36 10° NNW 22:42:47 55° ENE 22:44:15 41° ESE
ATLAS 2AS CENTAUR R/B 3.1 22:35:17 10° NNW 22:42:48 64° NE 22:46:25 30° ESE
EO 1 Del DPAF 3.3 22:41:32 10° NNE 22:44:59 62° ENE 22:44:59 62° ENE
Okean 3 Rocket 4.3 22:47:03 39° E 22:47:04 39° E 22:51:12 10° NNE
MOS 1-B Rocket 4.3 22:39:45 10° NNE 22:47:21 71° ESE 22:49:56 40° S
Aureole 2 Rocket 4.3 22:47:28 10° NNE 22:48:59 18° NE 22:48:59 18° NE
Cosmos 2112 Rocket 4.0 22:48:24 46° SSW 22:50:05 90° WSW 22:55:29 10° NNE
USA 215 4.2 22:45:31 10° NE 22:51:47 49° NNW 22:58:01 10° W
Cosmos 1606 4.0 22:48:57 10° NNE 22:52:19 30° ENE 22:52:19 30° ENE
Cosmos 2278 Rocket 2.3 22:47:54 10° NNW 22:53:32 64° WSW 22:54:59 47° SSW
Cosmos 158 Rocket 3.9 22:52:56 47° SW 22:54:19 76° WNW 22:59:14 10° NNE
Lacrosse 5 rocket 4.3 22:57:34 10° NNW 22:59:30 13° NNE 23:01:22 10° NE
Spot 4 3.7 22:59:07 64° S 22:59:53 86° WSW 23:04:41 10° NNW
Cosmos 1943 Rocket 4.0 22:56:44 10° N 23:01:17 24° NE 23:04:40 14° E
SL-16 R/B 2.4 23:00:46 46° SE 23:01:24 48° ESE 23:06:52 10° NE
TIMED 4.3 23:01:49 80° SSE 23:01:58 82° ESE 23:06:22 10° NNE
Cosmos 2058 4.0 23:01:10 32° WSW 23:02:10 37° WNW 23:06:03 10° N
Cosmos 1408 3.1 23:03:24 51° WNW 23:03:24 51° WNW 23:06:45 10° N
Gblst 52 Del rocket 4.4 23:00:00 10° WNW 23:05:50 66° SW 23:07:28 49° SSE
Cosmos 2056 Rocket 3.6 23:01:20 10° NNW 23:06:47 77° ENE 23:07:58 55° SE
Cosmos 2154 Rocket 4.4 23:07:50 31° SW 23:10:40 55° WNW 23:16:47 10° N
Nadezhda 3 Rocket 4.3 23:05:28 10° NNW 23:11:42 58° W 23:13:54 38° SSW
Cosmos 2341 Rocket 3.9 23:11:46 48° S 23:13:42 89° E 23:19:57 10° N
Cosmos 1680 Rocket 4.4 23:15:58 26° WSW 23:18:35 45° WNW 23:23:42 10° N
Meteor 2-3 Rocket 4.1 23:21:02 45° ESE 23:21:54 49° E 23:27:22 10° NNE
USA 267 3.3 23:21:24 46° SSE 23:23:14 63° SW 23:29:46 10° NW
Cosmos 2151 3.2 23:23:52 59° W 23:24:07 60° W 23:28:21 10° N
IRIDIUM 104 4.3 23:23:26 60° SE 23:24:11 69° E 23:29:23 10° N
Helios 1A 3.8 23:24:53 38° E 23:25:07 38° ENE 23:29:00 10° N
SL-8 Rocket 3.9 23:30:59 52° S 23:32:39 88° W 23:38:50 10° N
Cosmos 1825 3.3 23:32:56 36° WNW 23:32:56 36° WNW 23:36:25 10° N
IRIDIUM 114 4.2 23:32:35 66° SSE 23:33:19 84° E 23:38:35 10° N
Cosmos 1340 3.3 23:34:23 50° NE 23:34:23 50° NE 23:37:22 10° NNE
Cosmos 1452 Rocket 4.2 23:28:41 10° N 23:33:46 47° ENE 23:35:06 39° ESE
CZ-4C R/B 4.4 23:27:41 10° NNW 23:33:52 32° NE 23:40:53 10° E
BREEZE-M DEB (TANK) 4.5 23:31:33 10° WNW 23:32:45 15° W 23:32:45 15° W
COSMOS 2455 3.7 23:29:33 10° NNW 23:35:19 44° NE 23:38:24 25° ESE
ALOS 2 2.5 23:35:27 73° WSW 23:35:27 73° WSW 23:39:52 10° NNW
Cosmos 1408 Rocket 3.6 23:35:56 65° E 23:35:56 65° E 23:40:08 10° NNE
Cosmos 1933 3.4 23:34:33 10° N 23:38:13 72° NNE 23:38:13 72° NNE
Meteor 2-12 Rocket 4.3 23:37:27 54° S 23:38:57 86° E 23:45:08 10° N
Cosmos 1151 Rocket 2.9 23:35:49 10° N 23:40:03 85° NNW 23:40:03 85° NNW
IRIDIUM 103 4.2 23:41:42 65° SSW 23:42:28 81° W 23:47:43 10° N
Cosmos 44 3.2 23:43:37 59° W 23:44:00 62° NW 23:48:24 10° NNE
Cosmos 1500 Rocket 4.4 23:44:49 39° E 23:44:49 39° E 23:48:45 10° NNE
Cosmos 2369 Rocket 3.4 23:40:57 10° N 23:46:03 35° NE 23:48:49 22° ESE
Cosmos 1727 Rocket 4.1 23:40:07 10° N 23:46:20 66° E 23:48:04 47° SE
GP-B 3.3 23:44:20 10° N 23:48:41 58° W 23:48:50 58° W
Cosmos 371 Rocket 3.1 23:45:12 10° NNW 23:50:05 86° ENE 23:50:25 77° SE
Helios 1B rocket 3.8 23:52:13 10° NE 23:55:23 29° E 23:55:23 29° E
